Home   Weather   Munich   Past weeks
Flag for Germany

Past Weather in Munich, Bavaria, Germany — Yesterday and Last 2 Weeks

Now
70 °F

Sunny.


Feels Like: 70 °F
Forecast: 60 / 44 °F
Wind: 10 mph from East

Location: Oberpfaffenhofen

Current Time: Oct 15, 2019 at 1:23:26 pm

Latest Report: Oct 15, 2019 at 12:20 pm


Visibility: 10 mi

Pressure: 29.77 "Hg (28.01 "Hg at 526m altitude)

Humidity: 43%

Dew Point: 46 °F

Location of MunichLocation

Past Weather in Munich — Graph

°F

Munich Temperature Yesterday

Maximum temperature yesterday: 72 °F (at 12:50 pm)
Minimum temperature yesterday: 45 °F (at 7:50 am)
Average temperature yesterday: 57 °F

High & Low Weather Summary for the Past Weeks

 TemperatureHumidityPressure
High75 °F (Oct 13, 2:50 pm)100% (Oct 1, 3:50 am)30.21 "Hg (Oct 1, 3:50 am)
Low34 °F (Oct 3, 11:20 pm)38% (Oct 1, 1:50 pm)29.68 "Hg (Oct 2, 5:20 am)
Average52 °F82%29.98 "Hg
* Reported Sep 30 12:20 pm — Oct 15 12:20 pm, Munich. Weather by CustomWeather, © 2019

Note: Actual official high and low records may vary slightly from our data, if they occured in-between our weather recording intervals... More about our weather records

Advertising

Munich Weather History for the Previous 24 Hours

Scroll right to see more
 ConditionsComfort  
Time TempWeatherWind HumidityBarometerVisibility
12:20 pm
Tue, Oct 15
70 °FSunny.10 mph43%29.77 "Hg10 mi
11:50 am68 °FSunny.9 mph53%29.77 "Hg10 mi
11:20 am66 °FPassing clouds.6 mph56%29.80 "HgN/A
10:50 am63 °FSunny.5 mph59%29.80 "Hg10 mi
10:20 am63 °FSunny.2 mph59%29.80 "Hg10 mi
9:50 am55 °FSunny.3 mph77%29.80 "Hg10 mi
9:20 am54 °FSunny.2 mph77%29.83 "Hg10 mi
8:50 am48 °FSunny.3 mph94%29.83 "Hg10 mi
8:20 am45 °FSunny.2 mph93%29.83 "Hg10 mi
7:50 am43 °FPassing clouds.6 mph93%29.83 "HgN/A
7:20 am41 °FClear.5 mph93%29.83 "Hg10 mi
6:50 am45 °FClear.6 mph87%29.83 "Hg10 mi
6:20 am46 °FClear.3 mph93%29.83 "HgN/A
5:50 am46 °FClear.5 mph93%29.86 "HgN/A
5:20 am45 °FClear.6 mph100%29.86 "HgN/A
4:50 am43 °FClear.5 mph93%29.86 "HgN/A
4:20 am46 °FClear.2 mph100%29.89 "HgN/A
3:50 am45 °FClear.3 mph100%29.89 "HgN/A
3:20 am46 °FClear.3 mph100%29.89 "HgN/A
2:50 am46 °FClear.5 mph93%29.89 "HgN/A
2:20 am48 °FClear.6 mph94%29.89 "HgN/A
1:50 am46 °FClear.3 mph93%29.89 "HgN/A
1:20 am46 °FClear.2 mph100%29.89 "HgN/A
12:50 am50 °FClear.8 mph94%29.89 "HgN/A
12:20 am46 °FClear.2 mph100%29.89 "HgN/A
11:50 pm
Mon, Oct 14
50 °FClear.5 mph94%29.89 "HgN/A
11:20 pm48 °FClear.5 mph100%29.89 "HgN/A
10:50 pm50 °FClear.3 mph100%29.92 "HgN/A
10:20 pm52 °FClear.6 mph94%29.92 "HgN/A
9:50 pm50 °FClear.3 mph94%29.92 "HgN/A
9:20 pm54 °FClear.5 mph94%29.92 "HgN/A
8:50 pm52 °FClear.5 mph94%29.92 "HgN/A
8:20 pm52 °FClear.3 mph100%29.95 "HgN/A
7:50 pm52 °FClear.3 mph88%29.95 "HgN/A
7:20 pm55 °FClear.1 mph88%29.95 "HgN/A
6:50 pm57 °FClear.3 mph72%29.95 "Hg10 mi
6:20 pm64 °FSunny.2 mph68%29.95 "Hg10 mi
5:50 pm68 °FSunny.5 mph56%29.95 "Hg10 mi
5:20 pm70 °FSunny.7 mph53%29.95 "Hg10 mi
4:50 pm72 °FSunny.7 mph50%29.95 "Hg10 mi
4:20 pm72 °FSunny.8 mph50%29.95 "Hg10 mi
3:50 pm72 °FSunny.9 mph50%29.98 "Hg10 mi
3:20 pm70 °FSunny.5 mph53%29.98 "Hg10 mi
2:50 pm68 °FSunny.6 mph60%29.98 "Hg10 mi
2:20 pm70 °FPassing clouds.6 mph53%29.98 "HgN/A
1:50 pm72 °FSunny.8 mph50%29.98 "Hg10 mi
1:20 pm70 °FSunny.7 mph53%30.01 "Hg10 mi
Weather by CustomWeather, © 2019

See weather overview